Location: Natural Bridges National Monument
(37.6093°N, 109.9767°W)
Time: 13:25:32
(UTC-06:00)

Cosmos 1727 Rocket - Visible Passes

Search period start: 24 July 2014 00:00
Search period end: 03 August 2014 00:00
Orbit: 961 x 996 km, 82.9° (Epoch: 23 July)

Date Brightness Start Highest point End Pass type
(mag) Time Alt. Az. Time Alt. Az. Time Alt. Az.
24 Jul 4.0 00:34:35 76° N 00:34:35 76° N 00:40:16 10° N visible
24 Jul 6.2 02:19:18 11° WNW 02:20:20 12° WNW 02:22:30 10° NW visible
24 Jul 5.4 23:16:00 22° ENE 23:16:00 22° ENE 23:20:05 10° NE visible
25 Jul 4.6 01:00:44 48° WNW 01:00:44 48° WNW 01:06:30 10° N visible
25 Jul 4.6 23:42:08 41° ENE 23:42:08 41° ENE 23:47:22 10° NNE visible
26 Jul 5.4 01:26:52 26° WNW 01:27:10 26° WNW 01:32:14 10° NNW visible
27 Jul 3.9 00:08:15 76° NE 00:08:15 76° NE 00:14:04 10° N visible
27 Jul 6.1 01:52:59 13° WNW 01:54:02 13° WNW 01:56:56 10° NW visible
27 Jul 5.4 22:49:38 20° E 22:49:38 20° E 22:53:39 10° NE visible
28 Jul 4.4 00:34:21 54° WNW 00:34:21 54° WNW 00:40:22 10° N visible
28 Jul 4.6 23:15:43 38° E 23:15:43 38° E 23:21:05 10° NNE visible
29 Jul 5.3 01:00:27 28° W 01:00:55 29° WNW 01:06:13 10° NNW visible
29 Jul 3.9 23:41:47 73° E 23:41:47 73° E 23:47:52 10° N visible
30 Jul 6.1 01:26:31 14° W 01:27:45 15° WNW 01:31:13 10° NW visible
30 Jul 5.5 22:23:07 18° E 22:23:17 18° E 22:27:11 10° NE visible
31 Jul 4.2 00:07:50 60° W 00:08:04 60° W 00:14:14 10° N visible
31 Jul 4.7 22:49:09 34° E 22:49:18 34° E 22:54:48 10° NNE visible
01 Aug 5.2 00:33:52 31° W 00:34:40 32° WNW 00:40:10 10° NNW visible
01 Aug 3.9 23:15:10 64° ESE 23:15:29 65° E 23:21:40 10° NNE visible
02 Aug 6.0 00:59:52 16° W 01:01:28 17° WNW 01:05:23 10° NNW visible
02 Aug 5.5 21:56:26 15° E 21:57:10 16° E 22:00:40 10° NE visible
02 Aug 4.1 23:41:09 62° WSW 23:41:52 67° W 23:48:05 10° N visible
